Location: Peterborough
(44.3091°N, 78.3197°W)
Time: 17:48:01
(UTC-04:00)

Transit 4A - Pass Details

Date: 23 March 2023
Orbit: 864 x 980 km, 66.8° (Epoch: 04 June)

Event Time Altitude Azimuth Distance (km) Brightness Sun altitude
Rises 15:43:04 0° 332° (NNW) 3,548 10.8 36.5°
Reaches altitude 10° 15:45:45 10° 340° (NNW) 2,621 10.2 36.1°
Maximum altitude 15:51:25 38° 48° (NE) 1,389 8.7 35.4°
Drops below altitude 10° 15:57:13 10° 116° (ESE) 2,683 10.2 34.6°
Sets 15:59:59 0° 124° (SE) 3,640 10.8 34.2°
